Theta_e
286 286 286 286 286 286 285 284 284 284 284 284 283 283 283 283 283 283 283 283 283 283 283 283 283 283 283 284 284 284 284 284 284 283 283 283 283 283 283 283 283 283 283 283 284 284 284 284 284 284 283 283 283 283 283 284 284 284 284 284 284 284 284 285 285 285 286 286 285 285 286 286 286 286 287 287 287 287 287 287 288 288 290 291 292
287 287 287 287 287 286 286 285 285 284 284 284 284 283 283 283 283 283 283 283 283 283 283 283 283 283 283 284 284 284 284 284 284 284 283 283 283 283 283 283 283 283 283 283 283 283 283 283 283 283 283 283 283 283 283 283 283 283 283 283 283 284 284 284 285 285 285 285 285 285 285 285 285 286 286 286 286 286 287 287 288 289 289 289 290
287 287 287 287 287 287 287 287 286 286 285 285 284 284 283 283 283 283 283 283 283 283 283 283 283 283 283 284 284 284 284 284 284 284 284 283 283 283 283 283 283 283 283 283 283 283 283 283 283 283 283 283 283 283 283 282 282 282 283 283 283 283 283 283 284 284 284 284 284 284 284 284 285 285 285 285 286 286 286 287 288 288 287 288 288
288 287 287 287 287 287 287 287 287 286 286 286 286 286 285 284 284 283 283 283 283 283 283 283 283 283 283 284 284 284 284 284 284 284 284 283 283 283 283 283 283 283 283 283 283 283 283 283 283 283 282 282 282 282 282 282 282 282 282 282 283 282 283 283 283 283 283 283 284 284 284 284 284 284 284 284 285 285 286 286 287 287 287 287 289
288 288 287 287 287 287 287 287 286 287 287 287 287 287 287 286 286 285 284 284 284 284 283 283 283 283 283 284 284 284 284 284 284 284 284 284 283 283 283 283 283 283 283 283 283 283 283 283 282 282 282 282 282 282 282 282 282 282 282 282 282 282 282 282 282 283 283 283 283 283 283 284 284 284 284 284 284 284 285 285 286 286 287 288 289
288 288 287 287 287 287 287 287 287 287 287 287 287 287 287 287 287 287 286 285 284 284 284 283 283 283 283 283 283 283 283 283 283 283 283 283 283 283 283 283 283 283 283 283 283 283 283 282 282 282 282 282 282 282 282 282 282 282 282 282 282 282 282 282 282 282 283 283 283 283 283 283 283 283 283 283 283 283 284 284 285 285 286 287 287
288 288 288 287 287 287 287 288 287 287 287 287 287 287 287 287 287 287 287 286 285 284 284 283 283 283 283 283 283 283 283 283 282 282 283 282 282 283 283 283 283 283 283 283 283 283 282 282 282 282 282 282 282 282 281 281 281 281 281 281 282 282 282 282 282 282 282 282 283 283 283 283 283 283 283 283 283 283 283 284 284 284 284 284 285
289 288 288 288 287 288 288 288 288 288 288 288 287 287 287 287 287 287 287 286 286 285 285 284 283 283 283 283 283 283 283 283 282 282 282 282 282 283 283 284 284 283 283 283 282 282 282 282 282 282 282 281 281 281 281 281 280 281 281 281 281 281 281 282 282 282 282 282 282 282 283 283 283 283 283 283 283 283 283 283 283 284 284 284 284
289 289 288 288 288 288 288 288 288 288 288 288 288 287 287 287 287 287 287 287 286 286 286 285 284 283 283 283 283 283 283 283 283 282 282 281 282 283 283 283 283 283 283 282 282 282 282 282 282 281 281 281 280 280 280 280 280 280 280 281 281 281 281 281 281 281 282 282 282 282 282 282 282 283 283 283 283 283 283 283 283 283 284 284 284
289 289 288 288 288 288 288 288 288 288 288 288 288 288 288 288 287 287 287 287 287 286 286 285 285 284 284 284 283 283 283 283 283 282 281 281 281 282 283 282 282 282 282 282 282 282 282 282 281 281 280 280 280 280 280 280 280 280 280 280 281 281 281 281 281 281 281 281 282 282 282 282 282 282 282 282 282 282 283 283 283 283 283 283 283
289 289 289 289 289 288 288 288 288 288 288 288 288 288 288 288 287 287 287 287 287 286 286 286 285 285 285 284 284 284 283 284 283 282 281 280 280 281 282 282 282 282 282 282 282 281 281 281 281 280 280 280 280 280 280 280 280 280 280 280 280 280 280 281 281 281 281 281 281 281 282 282 282 282 282 282 282 282 282 282 283 283 283 283 283
289 289 290 290 289 289 288 288 288 288 288 288 288 288 288 288 287 287 287 287 287 286 286 286 286 285 285 284 284 284 284 284 283 282 281 280 280 280 281 281 281 281 281 281 281 281 280 280 280 280 280 279 279 279 279 279 279 279 279 279 280 280 280 280 280 280 280 281 281 281 281 281 281 281 282 282 282 282 282 282 282 282 282 283 283
289 289 290 290 289 289 289 289 289 288 288 288 288 288 288 288 288 288 287 287 287 286 286 286 286 285 285 284 284 284 283 283 283 281 280 280 279 279 280 281 281 281 281 280 280 280 280 280 279 279 279 279 279 279 279 279 279 279 279 279 279 279 279 279 280 280 280 280 280 281 281 281 281 281 281 281 281 281 282 282 282 282 282 282 283
289 290 290 289 289 289 289 289 289 289 289 289 288 288 288 288 288 288 287 287 287 286 286 286 285 285 285 284 283 283 283 283 282 280 280 279 279 279 280 280 280 280 280 280 280 279 279 279 279 279 279 278 278 278 278 278 278 278 279 279 279 279 279 279 279 279 279 280 280 280 280 281 281 281 281 281 281 281 281 281 282 282 282 282 283
290 290 289 289 289 289 289 289 289 289 289 289 288 288 288 288 288 288 288 287 287 286 286 285 285 284 284 283 283 282 282 281 280 280 279 278 278 279 279 279 279 279 279 279 279 279 279 279 278 278 278 278 278 278 278 278 278 278 278 278 278 279 279 279 279 279 279 279 279 280 280 280 280 280 280 280 281 281 281 281 282 282 282 282 283
290 290 289 290 290 290 289 289 289 289 289 289 288 288 288 288 288 288 288 287 287 286 285 285 284 284 283 283 282 281 280 280 279 279 278 277 277 278 279 279 278 279 278 278 278 278 278 278 278 278 278 278 278 278 278 278 278 278 278 278 278 278 278 278 279 279 279 279 279 279 280 280 280 280 280 281 281 281 281 281 282 282 282 282 283
289 290 290 291 291 291 290 290 289 289 289 288 288 288 288 288 288 288 287 287 286 285 285 284 284 283 282 282 281 280 279 279 279 278 277 277 277 278 278 278 278 278 278 278 278 278 278 278 277 277 277 277 277 277 277 277 278 278 278 278 278 278 278 278 278 279 279 279 279 279 279 280 280 280 280 281 281 281 281 281 281 282 282 282 282
289 290 291 291 291 291 291 289 289 288 288 287 287 287 287 287 287 287 286 286 285 285 284 283 283 282 282 281 280 279 278 278 278 277 276 276 277 277 277 277 277 277 277 277 277 277 277 277 277 277 277 277 277 277 277 277 277 277 278 278 278 278 278 278 278 278 278 278 279 279 279 279 279 279 280 280 280 280 281 281 281 281 281 282 282
290 290 291 291 291 291 289 288 287 287 287 287 287 287 286 286 286 286 286 285 284 283 283 282 281 281 280 279 279 278 278 277 277 276 276 276 276 276 277 277 277 277 277 277 277 277 276 276 276 276 276 276 276 276 277 277 277 277 277 277 277 277 277 277 277 277 278 278 278 278 278 278 278 278 279 279 279 279 280 280 280 281 281 281 282
290 291 291 290 290 289 289 288 287 287 287 287 287 286 286 286 285 285 284 284 283 282 281 281 280 279 278 278 278 277 277 276 276 275 275 275 275 276 276 276 276 276 276 276 276 276 275 275 275 275 275 276 276 276 276 277 277 277 277 277 277 277 277 277 277 277 277 277 278 278 278 278 278 278 278 278 279 279 279 279 280 280 280 281 281
290 290 289 289 289 288 288 287 287 287 287 286 286 286 285 284 284 284 283 282 282 281 280 280 278 278 277 277 277 276 276 276 275 275 274 274 274 275 275 275 275 275 275 275 275 275 275 275 275 275 275 275 275 276 276 276 276 276 276 276 277 277 277 277 277 277 277 277 278 278 278 278 278 278 278 278 279 279 279 279 279 280 280 281 281
289 289 288 288 288 288 287 287 287 286 286 285 285 284 284 283 283 282 282 281 281 280 279 278 277 277 276 276 276 275 275 275 274 274 274 274 274 274 274 274 275 275 275 274 274 274 274 274 274 274 274 275 275 275 275 276 276 276 276 276 277 277 277 277 277 277 277 277 277 277 277 277 277 278 278 278 278 278 278 279 279 279 280 280 280
288 288 288 287 287 287 287 286 286 285 285 284 284 283 283 282 282 282 281 281 280 278 277 277 276 276 276 275 275 275 274 274 274 273 273 273 273 273 274 274 274 274 274 274 274 274 274 274 274 274 274 274 275 275 275 276 276 276 276 276 276 276 276 276 275 275 275 275 275 276 276 276 276 276 277 276 277 277 277 278 278 278 279 279 280
288 287 287 287 287 287 286 285 285 284 284 284 283 282 282 282 281 281 280 279 277 277 276 276 275 275 275 275 274 274 274 273 273 273 272 272 272 272 273 273 273 274 274 274 274 274 273 273 274 274 274 274 275 275 275 275 275 275 275 275 274 274 274 274 274 274 274 274 274 274 274 274 275 275 275 275 276 276 276 277 277 277 278 278 279
287 287 287 287 286 286 285 284 284 283 283 283 282 282 282 281 280 279 278 277 276 276 275 275 275 274 274 274 273 273 273 272 272 272 272 271 271 272 272 273 273 273 273 273 273 273 273 273 274 274 274 274 274 274 273 273 273 273 273 273 273 272 272 272 272 272 272 272 273 273 273 273 273 273 274 274 274 274 275 275 276 276 277 277 278
287 287 287 286 286 285 284 283 283 283 282 282 282 281 281 280 278 277 277 276 275 275 274 274 273 273 273 273 272 272 272 271 271 271 271 271 271 272 272 272 273 273 273 273 273 273 273 273 273 273 273 273 273 273 272 272 272 272 272 272 271 271 271 271 271 271 271 271 271 271 271 271 272 272 272 272 273 273 274 274 275 275 276 276 276
287 287 286 286 285 284 283 283 282 282 282 281 281 280 279 278 277 276 276 275 275 274 273 273 272 272 272 272 271 271 271 271 271 271 271 272 272 272 272 272 273 273 272 272 272 272 272 272 272 272 272 272 272 272 272 271 271 271 271 270 270 270 270 269 269 269 269 270 270 270 270 270 270 271 271 272 272 272 273 274 274 275 275 275 276
286 286 285 284 284 283 283 282 282 281 281 280 279 278 277 276 276 276 276 275 274 273 272 272 271 271 271 271 271 271 271 271 271 271 272 272 272 273 273 273 272 272 272 272 272 272 272 272 272 272 271 271 271 271 270 270 270 269 269 268 268 268 267 267 267 268 268 268 268 268 269 269 270 270 270 271 271 272 272 273 273 274 274 275 275
286 285 284 283 283 282 282 281 281 280 279 278 277 277 276 276 275 275 275 274 273 272 272 271 271 271 271 271 271 271 271 272 272 272 272 272 273 273 272 272 272 272 272 272 272 271 271 271 271 271 271 270 270 269 269 268 268 267 267 266 266 266 265 265 266 266 266 266 266 267 267 267 268 268 268 269 270 271 271 272 272 273 273 274 274
285 284 283 283 282 282 281 281 280 279 278 277 276 276 276 275 275 274 274 274 273 272 271 271 271 271 271 271 271 271 271 271 272 272 272 272 272 272 272 271 271 271 271 271 271 271 271 271 271 270 269 268 268 267 267 266 266 265 265 264 264 264 264 264 264 264 265 265 265 265 266 266 266 266 267 267 268 269 269 270 271 272 272 273 273
284 283 282 282 282 281 281 280 279 277 276 276 276 275 275 275 274 274 273 273 272 272 271 271 271 271 271 271 271 271 271 271 271 271 271 271 271 271 270 270 270 270 271 271 271 271 270 270 269 268 267 267 266 265 265 264 264 263 263 263 263 263 263 263 263 263 264 264 264 264 264 265 265 265 266 266 267 267 268 268 269 270 272 273 273
283 283 282 282 281 281 279 278 277 276 276 275 275 274 274 273 273 273 273 273 272 271 271 270 270 270 270 270 270 270 270 270 270 270 270 270 269 269 269 269 269 270 270 270 270 269 269 268 267 266 265 265 264 264 263 263 263 262 262 262 262 262 262 262 262 262 263 263 263 263 263 264 264 264 265 265 266 267 268 269 269 270 271 271 272
283 282 282 281 280 279 278 277 276 276 275 274 274 273 272 271 271 271 271 272 272 272 271 271 270 269 269 268 268 268 268 269 269 269 269 268 268 268 268 269 269 269 269 269 268 267 267 266 265 264 264 263 263 263 262 262 262 262 262 262 262 262 262 262 262 262 262 262 262 263 263 263 263 263 264 264 265 265 266 267 268 269 270 271 271
282 282 281 280 279 277 277 276 275 275 274 273 273 272 271 270 269 269 269 269 270 270 270 269 269 269 268 268 267 267 267 267 267 267 267 267 267 267 268 268 268 267 267 267 266 265 265 264 263 263 263 262 262 262 262 262 262 261 261 261 261 261 261 261 261 261 262 262 262 262 262 263 263 263 264 264 264 265 265 266 267 268 269 270 271
281 280 279 278 277 276 276 275 275 274 273 272 272 271 270 269 269 268 267 266 266 266 267 267 267 267 268 268 268 267 266 265 265 266 266 266 266 267 267 266 266 265 265 264 264 263 263 263 262 262 262 262 262 262 261 261 261 261 261 261 261 261 261 261 261 261 261 261 261 262 262 262 262 263 263 264 264 264 265 265 266 267 267 268 270
279 278 277 277 276 276 275 274 274 273 272 272 271 270 269 269 268 267 266 265 265 265 265 265 266 266 267 267 268 267 265 264 264 264 265 265 265 265 265 265 264 264 263 263 263 262 262 262 262 262 261 261 261 261 261 261 261 261 261 261 261 261 261 261 261 261 261 261 261 261 261 262 262 262 263 263 264 264 265 265 266 267 267 268 269
278 277 276 276 275 275 274 274 273 272 271 271 270 269 268 268 267 267 265 265 264 264 264 264 264 264 265 266 266 266 265 264 263 263 263 263 264 264 264 263 263 263 262 262 262 262 261 261 261 261 261 261 261 261 261 261 260 260 260 260 260 261 261 261 261 261 261 261 261 261 261 261 262 262 262 263 263 264 264 265 265 266 267 268 269
277 276 276 275 275 274 273 273 272 271 270 269 269 268 268 267 266 265 264 264 263 263 263 263 263 262 263 264 264 263 263 263 262 262 262 262 262 262 262 262 262 262 262 261 261 261 261 261 261 261 261 261 260 260 260 260 260 260 260 260 260 261 261 261 261 261 261 261 261 261 261 261 262 262 262 263 263 263 264 264 265 265 266 267 268
276 275 275 274 274 273 272 271 271 270 269 268 268 267 267 266 265 264 263 263 262 262 262 262 262 262 262 263 262 262 261 261 261 261 262 262 262 261 261 261 261 261 261 261 261 261 261 261 260 260 260 260 260 260 260 260 260 260 260 260 260 261 261 261 261 261 261 261 261 261 261 261 262 262 262 262 263 263 264 264 265 265 265 266 267
275 274 274 273 272 272 271 270 270 269 268 268 267 267 266 265 264 263 262 262 262 262 262 261 262 262 262 262 261 261 260 260 261 261 261 261 261 261 261 261 261 261 261 260 260 260 260 260 260 260 260 260 260 260 260 260 260 260 260 260 261 261 261 261 261 261 261 261 261 261 261 262 262 262 262 262 263 263 263 264 264 264 265 265 266
274 273 273 272 271 271 270 270 269 268 268 267 266 266 265 265 264 263 262 261 261 261 261 261 261 261 262 262 261 260 260 260 260 260 260 260 260 260 260 260 260 260 260 260 260 260 260 260 260 260 260 260 260 260 260 260 260 260 260 261 261 261 261 261 261 261 261 261 261 261 261 262 262 262 262 262 262 263 263 263 264 264 264 265 266
273 273 272 271 270 270 269 269 268 267 267 266 266 265 264 263 263 262 262 261 261 261 260 260 261 261 261 261 260 260 259 259 260 260 260 260 260 260 260 260 260 260 260 260 260 259 259 259 259 259 259 259 260 260 260 260 260 260 261 261 261 261 261 261 261 261 261 262 262 262 262 262 262 262 262 262 263 263 263 263 264 264 264 265 265
272 272 271 270 270 269 268 268 267 266 266 265 265 264 263 263 263 262 261 261 260 260 260 260 260 260 260 260 259 259 259 259 259 259 259 259 259 259 259 259 259 259 259 259 259 259 259 259 259 259 259 259 260 260 260 260 260 261 261 261 261 262 262 262 262 262 262 262 262 262 262 262 262 262 262 263 263 263 263 263 264 264 264 265 265
271 271 270 269 269 268 267 267 266 266 265 264 264 263 263 262 262 262 261 261 260 260 259 259 259 259 259 259 259 259 259 259 259 259 259 259 259 259 259 259 259 259 259 259 259 259 259 259 259 259 259 259 260 260 260 260 261 261 261 261 262 262 262 262 262 262 262 262 262 262 262 262 262 263 263 263 263 263 264 264 264 264 265 265 266
270 270 269 268 268 267 267 266 265 264 264 263 263 263 263 262 262 261 261 260 260 259 259 259 259 258 259 259 259 259 258 258 258 258 258 258 258 258 258 258 258 258 258 258 258 258 258 258 259 259 259 259 260 260 260 261 261 261 261 262 262 262 262 262 263 263 263 263 263 263 263 263 263 263 263 263 263 263 264 264 264 265 265 266 266
269 269 268 267 267 266 266 265 264 264 263 263 262 262 262 262 262 261 261 260 260 259 258 258 258 258 258 258 258 258 258 258 258 258 258 258 258 258 258 258 258 258 258 258 258 258 258 258 259 259 259 260 260 260 260 261 261 261 262 262 262 263 263 263 263 263 263 263 263 263 263 263 263 263 263 263 263 264 264 264 264 265 265 265 266
268 268 267 266 266 265 265 264 264 263 263 262 262 262 262 261 261 261 260 260 260 259 258 258 258 258 258 258 258 258 258 258 257 257 257 258 258 258 258 258 258 258 257 258 258 258 258 258 259 259 259 259 260 260 260 261 261 262 262 262 263 263 263 264 264 264 264 264 264 264 263 263 263 263 264 264 264 264 264 264 264 265 265 265 266
267 267 266 266 265 264 264 264 263 263 262 262 262 261 261 261 260 260 260 260 259 258 258 258 258 258 257 258 258 258 258 257 257 257 257 257 257 257 257 257 257 257 257 257 258 258 258 258 258 259 259 259 260 260 261 261 261 262 262 263 263 263 264 264 264 264 264 264 264 264 264 264 264 264 264 264 264 264 264 264 264 265 265 266 266
266 266 265 265 264 264 263 263 262 262 262 261 261 261 261 260 260 260 260 259 258 258 258 258 258 257 257 257 257 257 257 257 257 257 257 257 257 257 257 257 257 257 257 257 257 257 258 258 258 259 259 259 260 260 261 261 262 262 263 263 263 264 264 265 265 265 265 265 265 265 264 264 264 264 264 264 264 264 264 264 264 265 265 265 266
265 265 264 264 263 263 263 262 262 262 261 261 261 260 260 260 260 260 259 259 258 258 258 258 258 257 257 257 257 257 257 257 256 256 257 257 257 257 257 257 256 257 257 257 257 257 258 258 258 259 259 259 260 260 261 261 262 262 263 263 264 264 265 265 265 266 266 266 266 266 265 265 265 265 264 265 265 264 264 265 265 265 265 265 265
264 264 264 263 263 263 262 262 262 262 261 261 261 260 260 260 259 259 259 258 258 258 258 258 257 257 258 258 257 257 257 257 256 256 256 257 257 256 256 256 256 256 256 257 257 257 257 258 258 259 259 259 260 260 261 262 262 262 263 264 264 265 265 265 266 266 266 266 266 266 266 266 266 265 265 265 265 265 265 265 265 265 265 266 266
Wind_Speed
8 7 6 5 4 4 4 4 4 4 4 3 4 4 3 4 4 4 4 4 4 5 6 7 8 9 9 9 10 10 11 11 12 12 11 11 11 12 13 12 11 11 12 12 12 12 13 15 16 17 17 17 18 19 19 19 19 19 18 18 19 18 20 21 19 22 25 23 25 28 27 30 34 32 33 36 34 33 34 33 33 34 33 34 37
11 10 9 8 7 6 6 6 5 5 5 4 4 4 3 3 2 1 0 1 3 4 6 7 8 8 9 9 9 10 11 11 12 11 11 12 12 12 12 11 11 11 11 12 13 13 14 14 16 17 17 17 18 19 19 19 19 20 19 19 21 19 19 22 23 24 28 27 25 27 26 25 30 31 31 36 38 36 35 34 30 28 30 33 37
14 13 13 12 10 9 9 8 7 7 7 6 6 5 5 4 4 3 3 4 5 6 7 8 9 9 10 9 9 10 11 11 12 12 11 12 12 12 12 12 12 12 12 13 14 14 15 15 16 17 18 18 19 19 19 19 19 20 21 20 21 22 20 21 24 25 30 32 28 26 27 24 26 30 30 33 36 35 35 33 31 30 32 33 35
18 17 17 16 14 13 13 11 11 10 9 8 7 6 6 7 7 7 7 8 9 9 10 10 10 11 11 11 10 11 12 12 12 12 12 12 12 13 13 12 12 13 13 14 15 15 16 17 17 18 19 19 20 20 19 20 20 21 22 21 21 24 23 22 24 26 29 33 31 27 27 27 26 27 29 31 33 32 32 33 33 33 33 32 31
21 20 20 19 18 18 17 16 15 14 13 11 9 8 8 9 9 10 11 11 12 12 13 13 12 12 13 13 12 13 13 13 14 14 13 12 13 13 13 13 13 13 14 14 15 15 16 17 18 18 19 19 20 20 20 21 22 22 22 23 23 24 25 24 25 27 28 32 34 31 28 28 28 26 24 26 30 32 32 32 33 32 32 30 27
25 24 24 23 23 22 20 19 18 17 15 14 13 11 11 11 12 12 13 13 14 15 16 15 15 15 15 15 15 15 15 15 16 16 15 15 15 15 15 15 15 15 15 15 16 16 17 18 19 18 19 20 20 20 21 21 22 23 23 25 25 25 27 27 26 27 29 31 34 34 31 28 28 27 24 23 26 29 31 33 32 30 28 31 32
28 28 27 27 27 25 24 23 21 19 18 16 15 15 15 15 15 15 15 15 16 17 17 18 18 17 17 18 17 17 17 17 18 18 17 18 18 18 18 17 17 17 17 18 18 19 19 19 20 20 19 19 20 20 22 23 23 25 25 25 26 26 27 28 27 27 29 31 32 33 32 29 27 27 26 25 25 25 25 28 31 31 29 31 34
32 32 31 31 31 29 28 26 24 22 20 19 19 18 18 19 19 19 18 18 18 19 19 19 20 20 20 20 20 19 19 19 19 18 18 18 18 18 18 17 18 19 20 20 20 20 21 20 20 20 19 20 21 22 24 26 26 27 27 26 27 27 28 28 28 28 28 29 30 31 32 31 29 27 26 24 24 24 22 23 28 32 32 32 34
36 35 35 35 34 33 31 28 26 24 23 23 22 21 21 21 21 22 22 22 22 21 21 21 22 22 23 23 22 21 21 20 21 20 19 20 18 17 18 18 19 21 21 21 21 21 21 21 21 21 22 24 26 28 29 29 28 29 29 27 27 28 28 28 28 28 28 28 30 30 30 31 29 27 26 24 23 25 27 26 27 30 31 32 34
37 38 38 38 37 35 33 31 29 27 26 26 25 24 24 24 24 25 25 26 25 25 24 24 24 25 25 25 24 23 23 23 23 22 22 22 20 18 19 20 20 21 22 22 22 21 21 21 22 23 25 28 29 29 29 28 29 30 31 31 30 29 30 30 29 28 28 28 29 29 28 29 30 28 27 28 27 26 28 28 28 30 30 28 30
37 38 39 39 38 36 35 33 31 30 30 29 28 27 26 26 27 27 28 28 28 28 28 27 27 27 26 26 25 24 24 25 24 24 23 23 23 21 21 21 21 21 22 22 23 22 22 22 23 24 25 26 27 27 28 29 31 32 33 33 33 32 32 32 31 30 29 29 30 30 29 30 32 31 29 30 29 27 27 28 27 28 28 22 21
35 37 39 40 38 37 36 34 33 33 32 32 31 29 28 27 28 29 29 30 30 30 30 30 30 29 27 25 25 24 25 26 26 25 24 24 25 24 23 22 22 22 22 23 24 24 24 25 25 25 25 26 27 28 29 31 33 33 34 34 35 35 35 36 36 35 33 32 32 33 32 33 34 33 31 30 30 29 29 29 27 27 29 25 23
31 34 37 39 38 37 35 34 34 34 33 33 32 31 30 29 28 28 28 29 29 30 30 30 29 28 27 26 25 24 24 26 26 24 24 25 26 25 23 22 23 24 24 24 25 25 26 26 26 26 26 27 28 28 28 30 31 32 33 33 34 35 36 37 38 38 38 37 37 37 36 35 35 35 33 31 32 32 30 30 30 29 30 29 28
27 30 32 35 36 36 35 34 34 34 33 33 33 33 32 30 27 27 27 27 28 28 28 28 28 27 26 25 23 22 23 24 24 24 24 26 26 24 23 23 24 25 25 25 26 27 27 26 27 28 28 28 28 27 28 29 30 31 31 31 32 33 34 35 36 37 38 39 40 41 41 39 38 38 38 35 35 35 33 32 33 32 33 34 35
26 28 29 31 33 34 35 35 34 34 33 34 34 34 33 31 28 27 27 27 27 27 27 26 26 25 24 22 21 20 21 23 24 24 25 25 24 23 23 23 24 24 25 25 26 27 27 27 27 29 30 30 29 29 29 30 31 32 33 34 34 34 34 35 34 35 35 36 38 40 41 41 41 40 40 38 38 38 36 36 37 38 39 39 38
26 27 27 28 30 32 34 35 34 33 33 34 34 34 34 32 30 28 28 27 27 26 25 24 24 23 21 20 19 18 19 23 25 25 25 24 23 22 22 22 24 24 25 25 26 26 27 26 27 29 30 31 31 30 31 32 33 34 35 36 35 35 35 35 35 35 37 38 40 41 42 43 44 45 45 45 44 43 42 40 39 39 39 35 33
26 26 27 28 29 30 32 34 34 34 33 34 34 35 34 33 31 29 28 27 25 24 24 23 22 21 19 18 18 18 20 23 25 25 24 23 21 21 22 22 23 24 25 25 26 26 26 26 27 29 31 32 32 32 32 34 34 35 36 36 36 36 35 35 34 34 36 38 40 41 43 45 46 48 49 48 47 45 43 39 36 36 34 25 22
27 28 29 29 30 31 32 33 33 33 33 33 33 34 33 32 31 29 27 25 24 23 22 20 19 18 18 18 18 19 21 23 24 25 24 22 20 21 22 22 23 24 25 25 25 26 27 27 28 29 31 33 34 34 34 34 34 33 34 35 35 35 35 34 33 33 35 36 37 38 40 42 43 44 45 45 45 43 41 40 37 37 33 25 22
29 29 29 29 30 31 32 31 31 31 31 31 32 32 31 30 29 27 25 23 21 20 19 18 16 15 16 18 20 21 22 22 22 24 24 21 19 20 21 22 23 25 25 25 26 26 26 28 28 29 31 32 34 35 34 33 33 33 33 33 34 35 35 34 33 34 35 36 36 37 38 38 39 40 41 42 42 41 41 41 39 36 33 31 30
28 29 29 29 29 29 29 29 29 29 29 30 29 29 28 27 26 24 22 20 18 17 16 15 15 16 17 19 19 21 21 20 20 22 23 21 20 20 21 23 24 25 25 25 26 26 26 27 27 28 29 31 32 34 33 33 34 34 34 34 34 35 36 36 36 37 39 39 40 42 42 42 43 43 43 44 43 42 41 40 39 38 36 34 33
25 27 28 28 27 27 27 27 27 28 28 27 26 26 24 23 22 20 18 16 15 15 15 15 17 17 17 18 18 19 21 21 21 21 22 22 21 20 21 23 24 24 25 26 27 27 27 28 28 28 29 31 32 34 34 35 36 36 35 36 37 38 40 42 43 44 44 43 43 44 44 44 44 43 42 43 42 41 41 39 38 39 37 36 35
24 25 26 26 26 26 25 25 25 25 25 24 23 22 21 19 18 16 14 14 14 15 16 17 17 17 17 17 18 19 21 22 23 24 24 23 22 21 22 23 23 24 25 27 28 27 27 29 30 31 31 33 35 36 36 37 38 38 39 40 42 43 45 46 45 45 44 43 42 41 41 41 40 40 41 42 42 42 42 42 41 40 39 39 39
23 23 24 24 24 24 23 23 22 22 22 21 20 19 18 16 14 14 14 14 15 15 16 15 15 15 16 16 16 17 18 20 23 25 25 24 23 22 23 23 23 23 24 26 28 28 29 30 31 32 33 35 37 38 40 41 40 39 41 42 43 44 43 42 40 39 39 40 40 39 38 39 38 37 37 38 39 39 40 40 42 43 44 45 47
21 22 23 22 22 22 21 20 20 20 19 18 17 16 15 14 13 14 14 14 14 13 13 13 13 13 14 14 14 14 15 18 22 25 27 26 24 22 22 22 23 23 23 24 26 28 30 31 33 35 37 39 41 41 42 41 39 38 39 41 42 42 39 37 37 37 37 38 39 39 40 41 40 39 39 39 38 38 38 39 41 43 43 43 45
21 21 21 21 20 20 19 18 18 17 16 15 15 14 14 14 14 14 13 12 12 11 11 11 11 12 13 13 14 14 14 16 20 24 26 25 22 21 21 21 23 24 24 24 25 27 30 34 37 38 38 39 38 37 36 36 36 38 40 39 39 39 36 35 35 34 34 36 38 39 40 40 39 39 41 42 42 42 42 42 42 42 42 42 43
21 20 20 20 20 18 17 16 15 14 14 14 14 15 15 14 13 12 12 12 12 13 13 13 14 14 14 14 14 15 15 15 17 19 20 20 19 18 19 20 22 23 23 24 25 28 31 34 36 36 36 36 35 33 33 35 36 38 39 36 33 32 31 31 32 31 31 33 36 37 39 39 39 38 39 39 40 41 40 40 41 40 40 40 41
20 19 19 19 18 17 16 15 15 15 15 15 15 15 14 12 11 11 12 12 13 14 15 15 15 15 14 13 14 15 16 15 15 15 16 16 16 17 19 21 21 21 21 22 23 26 30 33 35 36 35 36 35 33 33 34 33 33 32 31 30 30 30 31 33 34 34 35 36 38 40 40 39 38 37 36 36 36 36 36 37 38 38 39 39
18 19 18 17 17 16 16 15 15 16 16 15 14 13 12 11 11 12 13 13 13 14 14 14 15 15 14 13 14 15 15 14 12 12 14 16 19 21 22 22 22 21 22 24 27 30 32 34 34 33 31 32 32 30 29 30 31 30 30 29 29 31 32 34 35 36 36 36 37 39 40 39 37 36 35 34 33 33 34 34 35 36 37 36 34
17 18 17 16 16 15 15 15 15 16 15 14 13 12 11 11 12 13 14 14 14 14 14 15 16 15 14 13 13 14 16 15 14 16 20 22 24 25 25 25 25 26 28 30 32 33 33 31 29 28 27 29 30 29 28 29 30 30 29 28 29 30 31 31 32 32 33 34 35 36 36 36 36 36 35 36 35 34 34 34 34 35 36 34 32
17 17 16 16 15 15 15 15 16 15 14 12 11 11 11 12 13 14 15 15 15 15 15 16 16 15 15 16 16 16 19 21 23 26 26 26 27 27 28 29 30 30 31 32 33 32 28 25 25 26 27 28 29 28 28 28 28 28 28 27 26 27 28 28 29 30 31 31 31 32 32 33 33 33 33 34 36 36 36 37 35 34 34 33 32
17 17 16 15 15 15 15 16 15 13 11 10 10 11 13 14 15 15 15 15 15 15 15 16 16 16 17 20 20 20 21 23 24 26 27 27 27 29 31 32 31 31 31 31 32 29 23 21 24 26 26 26 27 28 28 27 26 27 28 27 25 25 27 28 28 29 30 30 31 31 31 32 33 33 32 33 34 35 36 38 37 36 35 32 30
17 16 15 14 15 15 16 15 13 11 10 10 11 12 13 15 16 16 16 15 16 16 17 17 17 16 16 18 19 20 22 22 24 25 27 28 29 29 31 32 32 32 31 30 28 25 21 21 24 25 24 25 26 27 27 26 26 26 26 27 27 26 26 28 29 29 31 31 31 32 32 32 33 33 33 33 33 32 32 32 32 34 34 32 30
15 15 15 16 16 16 15 12 11 10 10 11 11 12 12 13 14 16 18 19 19 20 19 18 17 17 16 16 18 20 23 24 26 26 26 27 28 29 31 32 32 32 30 26 23 21 21 23 25 24 24 25 26 26 26 26 26 27 26 27 29 29 28 29 30 31 32 32 32 33 33 33 33 33 33 32 32 32 32 31 30 30 29 29 30
14 14 15 16 16 15 13 11 10 10 10 11 12 12 12 13 13 15 18 20 20 21 20 19 20 21 21 21 21 22 23 24 25 26 26 27 27 28 30 32 31 28 24 20 19 21 23 24 25 25 24 25 25 26 27 27 26 27 27 28 30 31 30 30 30 30 31 32 32 33 33 32 32 32 32 31 30 30 31 31 31 30 28 27 28
15 15 15 15 14 12 11 10 10 11 11 11 11 11 12 13 13 15 16 17 18 20 21 22 23 24 25 25 25 24 24 23 24 25 25 26 26 27 28 27 25 21 17 16 18 22 23 24 24 25 25 25 26 27 27 27 27 27 28 29 30 30 31 30 30 30 31 31 32 32 33 33 33 32 32 33 32 31 30 30 30 30 29 29 28
17 16 15 13 12 11 10 10 10 10 11 11 11 11 12 12 13 15 16 17 18 21 23 25 25 25 26 27 26 27 27 25 23 23 25 26 26 24 22 20 19 19 19 18 19 21 22 23 24 25 24 25 26 26 27 28 28 28 29 30 31 31 31 30 30 30 31 31 32 32 32 33 33 32 32 32 32 31 31 31 30 30 30 30 29
17 15 13 12 10 10 10 10 10 10 10 10 10 11 12 13 14 15 16 17 19 20 23 25 26 26 27 27 27 28 30 30 28 26 24 22 20 18 17 17 18 20 21 20 19 20 22 23 23 24 25 25 25 26 27 28 29 30 31 31 31 31 32 32 32 33 33 33 34 34 33 33 33 33 32 32 32 32 32 31 30 30 31 32 31
14 12 11 10 9 9 10 9 9 10 9 10 10 11 12 14 15 15 16 18 19 20 22 24 24 23 25 27 29 29 31 32 31 28 22 16 13 14 15 16 17 20 21 20 20 20 22 22 22 23 24 24 25 26 27 28 30 31 32 32 32 32 32 33 34 34 33 33 34 34 33 33 33 32 32 32 32 31 31 31 31 30 30 30 29
12 10 10 9 9 9 9 9 9 9 9 10 11 12 12 14 15 15 16 17 18 19 21 22 22 23 25 27 29 28 25 23 22 23 22 19 15 13 14 15 17 19 20 21 20 20 21 22 22 23 23 24 25 26 27 29 30 31 31 32 33 32 31 31 32 32 31 31 32 33 33 32 32 32 32 32 33 32 31 31 30 28 27 27 27
10 10 10 9 9 9 9 9 9 9 10 11 11 12 13 14 15 16 17 17 18 19 20 21 23 24 26 27 27 23 19 18 17 19 21 20 17 14 14 15 17 19 19 20 20 20 21 21 22 22 24 24 25 26 28 29 30 31 32 33 32 32 31 30 30 31 32 32 31 32 32 33 32 31 31 32 33 33 32 32 31 30 28 29 31
10 10 10 9 9 9 9 9 9 9 10 11 12 13 14 15 15 17 17 17 19 21 21 22 25 27 27 28 26 22 19 19 19 18 18 18 18 16 15 16 17 18 19 19 19 20 20 21 21 22 24 24 25 27 29 30 31 31 31 32 31 31 31 30 29 31 33 33 33 32 33 33 32 31 32 32 32 32 32 32 31 30 29 30 31
10 10 10 9 10 10 9 9 9 10 11 12 13 13 14 15 16 17 18 18 19 21 22 24 27 28 28 28 27 22 20 20 21 20 19 18 18 18 18 18 18 18 18 19 19 20 21 22 22 24 25 26 27 28 29 30 31 31 31 32 31 29 30 30 30 30 30 31 33 34 33 33 32 32 32 33 32 32 32 31 30 29 28 28 29
10 10 10 10 10 9 9 9 10 11 11 12 13 14 14 15 16 17 18 19 20 21 22 24 26 28 29 28 26 22 19 18 18 18 18 18 18 19 19 19 19 19 20 21 22 23 23 25 26 26 27 29 31 31 31 33 33 32 33 33 31 29 28 28 27 27 28 29 31 33 33 32 33 33 32 32 31 31 31 31 30 29 28 28 28
11 10 10 10 9 9 9 9 10 11 12 12 13 14 14 15 16 17 18 20 21 22 23 24 25 27 28 28 26 24 22 20 18 17 18 21 23 23 22 21 22 24 26 27 27 25 25 28 30 31 32 34 37 36 36 38 38 37 37 37 35 33 31 28 27 29 29 27 26 28 30 31 31 32 31 30 30 31 30 30 30 29 28 28 27
11 10 9 9 9 9 9 10 11 12 12 13 14 15 15 15 17 18 19 21 23 24 25 25 25 26 26 28 28 27 29 29 25 19 19 21 23 23 22 22 24 28 31 32 32 31 30 32 35 35 35 37 38 37 38 41 42 41 42 42 41 38 36 36 38 38 35 31 30 30 30 29 30 30 30 30 30 30 30 30 30 29 28 27 25
10 9 9 9 8 9 10 10 11 12 13 14 15 16 16 16 18 19 20 22 23 24 25 25 25 25 26 29 30 30 32 34 29 21 20 23 25 26 27 28 30 34 37 37 37 35 34 34 35 35 36 38 39 39 42 45 45 44 44 45 43 41 39 40 41 41 39 37 36 34 30 28 28 29 30 30 30 30 30 30 30 29 28 27 27
9 8 8 8 9 9 11 11 12 13 14 15 15 16 17 18 18 20 21 22 23 24 25 25 26 27 28 29 31 31 33 35 30 23 23 30 34 35 34 35 37 41 42 41 39 38 37 37 37 37 39 42 44 45 46 46 46 46 45 43 42 42 41 39 39 40 42 42 39 35 34 31 28 27 28 30 30 29 30 30 29 29 29 28 27
9 9 9 9 10 11 12 12 13 14 15 15 16 16 17 18 19 20 22 23 24 25 25 25 27 28 28 30 32 32 34 36 34 28 26 31 36 37 37 38 41 43 42 41 42 43 43 41 41 41 41 42 44 46 46 45 45 46 45 43 42 44 44 42 40 41 43 42 39 37 38 36 31 26 27 29 29 28 28 29 28 28 28 27 27
9 9 9 10 11 12 13 13 14 15 15 15 16 17 18 19 20 21 22 23 24 25 25 26 27 28 29 30 33 33 34 36 36 32 31 34 38 39 41 43 45 44 41 41 44 47 48 48 48 46 45 44 45 47 48 47 46 47 47 46 45 45 45 44 43 42 42 41 40 39 39 39 34 29 27 28 29 29 29 29 28 27 27 26 26
10 10 10 11 12 13 13 14 14 15 15 15 16 18 19 20 21 22 23 24 25 25 26 26 27 29 30 31 33 34 35 36 35 34 36 40 43 43 44 45 46 45 44 44 47 49 51 51 50 47 46 47 48 48 48 48 48 48 48 47 45 44 45 46 46 43 41 39 38 36 36 38 38 33 28 27 29 30 29 28 28 27 26 26 25
10 10 11 12 13 13 14 14 15 15 15 15 17 18 19 21 22 23 24 25 25 26 27 27 28 29 30 31 33 35 37 37 36 37 40 43 45 45 45 46 46 46 47 48 49 49 50 50 48 47 47 48 47 46 47 50 50 49 48 46 46 48 49 48 45 42 39 38 38 36 34 35 38 37 31 27 28 29 29 29 28 28 27 26 25
Wind_Direction
215 211 207 203 201 201 208 211 208 203 199 188 181 176 165 150 136 117 95 69 49 30 19 12 8 8 6 2 360 358 356 355 355 357 356 354 352 351 350 346 338 335 332 331 331 328 326 324 322 322 322 320 319 318 317 316 315 312 312 310 307 306 304 300 296 296 298 297 296 301 307 311 311 313 315 313 315 318 316 313 313 315 315 312 310
223 224 223 221 219 216 218 223 227 228 229 229 223 218 216 213 202 181 67 7 1 355 349 345 344 346 347 343 340 340 340 339 340 340 339 338 337 336 336 332 327 325 323 322 324 323 320 318 317 318 318 316 314 315 314 314 315 313 312 310 307 305 304 302 299 297 299 301 301 302 305 307 307 310 313 312 314 317 316 313 313 312 313 311 307
228 228 231 232 232 230 229 230 234 236 238 243 246 245 252 259 265 279 293 303 314 321 322 323 326 328 328 325 323 324 325 324 324 325 323 323 324 324 324 322 320 319 318 317 319 319 317 315 315 317 317 314 312 313 313 313 314 312 310 309 306 304 302 300 298 296 297 300 303 304 305 306 304 306 310 310 311 313 314 313 312 309 309 307 303
232 231 233 236 238 238 239 237 237 241 242 245 252 259 268 278 284 288 291 293 297 302 305 307 311 313 313 311 310 311 312 311 311 311 310 308 310 312 312 312 312 312 312 312 313 314 314 313 313 315 315 313 312 313 313 313 312 310 308 307 305 302 302 298 295 294 295 297 299 302 303 303 301 302 306 308 308 309 310 311 310 309 307 305 303
236 235 235 237 239 241 244 243 242 245 247 249 254 262 270 276 281 285 287 287 289 290 293 295 297 300 300 300 300 300 302 303 304 305 304 302 303 303 304 305 306 307 307 307 308 308 309 308 309 311 311 310 309 310 310 311 310 308 306 305 304 302 300 298 294 292 292 293 296 299 300 299 299 299 300 304 306 308 308 308 309 309 308 307 306
238 238 237 238 239 242 246 246 245 247 250 253 256 260 266 271 274 278 279 280 281 282 284 285 286 288 288 289 291 294 298 301 303 306 307 307 306 305 306 307 307 308 307 306 306 305 305 305 305 307 306 304 305 306 307 307 306 305 303 301 300 299 297 296 294 292 290 290 292 296 297 298 298 299 299 300 300 303 306 307 306 306 308 308 307
240 240 240 239 240 243 246 248 248 249 252 255 258 259 264 267 269 271 272 273 274 276 279 280 280 280 281 283 287 290 294 298 302 307 309 310 311 310 310 310 309 310 309 308 307 305 303 302 301 302 301 300 301 303 304 304 302 300 299 297 296 295 294 293 292 291 290 290 291 293 296 296 296 296 298 299 296 294 300 305 306 306 308 307 305
241 241 241 241 242 243 247 249 250 251 254 256 257 258 261 265 268 269 270 270 271 273 276 277 278 277 278 280 284 287 290 294 300 304 306 309 310 308 308 309 308 309 308 306 305 302 301 300 298 297 296 296 297 297 297 299 298 295 294 293 292 291 291 291 291 290 289 290 290 292 294 295 295 295 297 299 298 296 297 299 299 301 304 304 302
242 242 241 242 243 245 248 249 251 253 254 256 257 258 261 265 268 269 269 269 270 272 274 274 275 275 276 278 280 283 286 291 297 303 306 308 308 306 306 306 305 305 303 302 300 298 297 296 294 293 293 293 293 292 290 289 289 288 289 289 289 289 289 289 289 290 290 289 289 291 292 292 293 296 297 295 295 296 298 296 292 293 298 299 297
243 242 242 243 244 246 248 250 251 252 253 255 257 259 261 264 266 267 267 268 268 269 270 271 271 272 273 275 276 278 283 289 296 301 306 309 309 307 305 304 303 302 300 298 297 295 294 293 292 292 293 293 292 290 285 282 280 279 280 282 283 284 286 287 286 287 287 287 288 289 289 288 289 292 292 292 292 292 293 292 291 293 296 295 293
243 243 244 246 246 246 248 250 251 251 252 254 256 258 261 263 264 265 265 266 267 267 266 267 268 270 271 272 273 275 281 287 294 299 303 308 311 309 305 303 302 299 297 296 295 295 294 291 291 292 291 290 290 288 284 281 280 278 276 276 276 276 279 281 283 283 283 283 284 284 284 285 287 289 288 289 291 290 289 289 289 293 295 293 293
245 244 245 247 246 246 248 250 251 251 251 253 255 257 260 261 263 263 264 265 265 265 265 265 266 268 269 270 271 273 279 285 291 295 300 307 313 312 305 301 299 296 295 294 292 293 293 291 291 289 287 286 286 284 283 281 281 280 278 276 274 273 272 272 275 277 279 280 280 280 280 281 284 285 285 287 288 288 288 288 287 288 288 286 286
246 247 247 246 246 247 248 250 251 251 251 252 254 256 257 259 261 262 263 264 264 264 264 265 265 267 268 270 271 272 277 283 288 294 302 309 313 311 302 296 295 292 291 290 289 289 289 289 289 286 284 285 283 281 280 279 279 278 277 276 274 273 272 270 270 271 273 276 277 277 277 278 280 281 283 285 288 288 288 286 286 285 283 282 282
248 249 249 247 247 247 248 249 251 251 251 252 253 254 255 257 259 261 262 263 263 263 264 264 265 266 268 269 269 271 276 281 288 298 307 310 311 305 296 292 290 288 287 285 284 285 285 285 286 285 284 283 282 280 280 280 281 281 280 279 278 277 276 274 272 270 270 270 271 273 274 276 277 280 282 285 286 286 286 286 287 285 283 283 284
248 249 249 249 249 248 248 249 251 252 253 252 252 252 253 254 257 260 261 262 263 264 264 264 264 266 267 268 268 271 277 284 294 304 309 309 307 299 292 290 288 285 284 282 280 280 281 281 282 282 282 282 281 280 281 282 284 285 284 283 281 279 277 275 273 271 271 268 268 270 273 275 277 279 282 285 285 284 284 284 285 285 285 284 284
248 250 250 251 250 249 249 250 251 254 255 253 252 252 252 253 256 258 259 260 262 263 263 263 264 265 266 266 268 275 283 292 300 306 308 307 303 296 291 288 286 284 282 280 279 278 279 279 280 280 281 283 283 282 283 285 286 286 285 283 282 281 279 276 274 272 271 270 270 272 273 275 277 278 280 281 281 282 283 283 282 282 282 282 282
250 251 253 254 254 253 253 252 253 255 256 254 253 254 254 254 256 257 257 258 260 262 263 264 263 263 262 265 274 283 289 296 302 304 306 305 300 294 290 288 286 284 282 280 279 278 278 278 280 282 283 283 284 284 285 287 287 285 284 284 284 283 281 280 279 277 275 274 274 275 275 275 276 278 279 279 279 280 281 280 279 279 279 279 279
255 255 256 259 260 260 258 255 254 256 256 256 256 257 257 256 256 257 257 257 259 261 262 261 259 261 265 273 282 288 292 297 300 301 303 303 296 290 289 288 285 284 283 282 280 280 279 278 279 281 281 281 283 284 285 286 286 285 285 286 285 284 283 284 285 283 281 280 279 277 277 277 277 277 278 278 277 277 276 275 275 276 275 273 275
263 263 264 267 268 266 263 259 258 258 259 260 260 260 260 259 258 259 259 258 258 257 256 257 259 266 274 281 288 293 296 296 297 299 301 300 293 288 287 287 285 284 284 284 283 283 282 282 281 280 279 280 282 284 285 286 286 286 286 286 285 284 284 286 287 286 284 283 281 279 278 277 277 277 276 276 276 275 272 271 272 271 270 269 271
272 271 271 272 272 272 270 267 264 263 263 264 265 264 263 261 258 258 257 254 252 252 255 262 268 274 280 286 290 293 293 292 292 295 298 297 291 286 285 284 284 285 286 286 287 286 285 284 283 281 280 280 281 283 284 286 287 287 286 284 283 283 285 286 284 282 281 280 279 278 278 277 274 273 272 273 273 271 269 269 267 265 265 266 267
278 275 273 273 274 276 275 272 269 268 267 267 266 264 261 258 254 251 249 248 250 255 262 269 275 280 284 286 287 288 290 292 292 293 295 296 291 284 280 280 281 284 287 287 286 285 285 285 283 282 281 281 282 284 285 286 287 287 285 282 281 283 286 286 285 284 283 281 280 280 280 278 275 272 271 272 271 269 268 268 266 264 262 262 264
279 277 276 275 276 277 276 274 272 270 268 265 262 258 254 251 248 246 245 249 255 261 267 274 279 284 286 285 285 287 290 293 295 297 299 298 291 281 277 277 278 282 285 285 285 284 283 284 283 282 283 283 284 285 286 287 288 287 286 285 286 287 289 289 289 289 288 285 284 284 281 279 276 273 271 271 270 268 268 268 266 263 261 260 261
279 278 276 275 276 277 276 274 272 267 265 261 254 249 247 243 242 242 245 251 258 264 272 279 283 284 285 284 283 283 285 289 295 300 302 299 291 282 276 276 278 280 281 282 283 284 284 283 283 283 284 286 287 288 289 290 290 289 288 288 289 291 292 291 289 288 287 284 283 282 280 278 276 274 272 271 269 269 269 267 265 264 263 262 260
278 275 275 275 275 275 273 271 268 263 259 254 246 239 237 234 235 240 244 251 260 267 275 281 281 280 281 282 280 277 279 285 292 299 303 302 293 282 278 279 280 280 280 280 281 283 283 283 284 286 287 289 289 290 291 291 290 290 290 291 293 293 291 290 288 285 284 282 279 278 277 276 275 275 274 274 273 272 272 271 270 269 267 266 264
277 275 276 275 273 272 268 264 261 256 250 243 236 229 228 228 231 239 248 258 267 273 277 278 277 277 278 280 281 281 280 282 287 295 302 303 294 282 279 283 284 284 283 282 281 283 283 285 287 288 289 291 291 291 292 291 290 291 290 292 295 293 289 288 286 282 280 279 278 277 277 277 277 276 276 276 275 273 272 271 271 270 269 269 269
273 273 273 272 270 266 260 254 250 244 237 231 227 224 226 229 234 245 260 270 275 279 283 283 282 280 279 280 284 286 286 282 281 287 295 298 293 286 285 288 289 289 288 285 285 286 286 287 288 289 290 292 291 291 290 289 290 292 290 290 291 289 286 288 287 283 282 281 280 280 280 281 281 280 279 277 275 272 271 269 268 268 266 266 267
268 267 265 264 261 255 250 243 236 230 225 222 223 224 228 235 246 259 271 278 282 285 287 287 285 281 280 284 288 289 288 284 281 283 288 291 292 293 294 295 295 294 292 290 290 290 290 290 291 290 292 291 289 288 288 287 288 291 289 290 290 286 285 287 285 283 283 282 281 282 282 282 282 281 278 277 273 271 271 269 269 268 265 264 266
264 262 258 255 251 244 239 232 224 220 218 218 222 227 236 248 261 270 278 282 284 284 282 281 283 284 285 287 290 290 287 282 277 281 289 294 296 298 300 299 298 297 295 295 296 295 293 293 292 291 292 292 290 288 289 290 291 290 288 289 290 286 285 285 282 279 279 279 279 281 282 282 283 282 281 280 276 273 272 270 269 270 269 266 265
259 256 251 246 240 233 226 220 216 215 216 220 228 239 252 265 273 279 284 286 287 286 284 282 286 289 287 283 284 287 288 287 287 290 294 297 298 299 299 298 297 297 297 298 298 297 294 293 292 291 293 295 293 290 291 293 292 290 287 287 287 285 285 283 280 278 277 276 277 279 280 281 282 282 282 281 279 277 276 271 268 268 270 269 266
250 247 241 235 230 222 216 213 213 215 220 229 243 257 268 275 279 284 288 290 291 291 288 284 284 284 283 281 279 279 282 288 293 296 298 299 300 299 298 297 297 297 298 300 299 295 292 292 292 292 293 293 292 291 294 295 293 289 289 288 286 285 285 281 278 278 278 277 277 279 279 280 281 281 280 279 278 279 279 276 273 271 269 266 265
239 236 230 225 221 215 212 212 214 220 231 246 261 272 279 282 284 286 288 290 293 294 292 286 280 276 277 281 283 283 284 288 293 296 298 300 301 300 299 299 299 299 301 302 299 295 292 291 290 290 290 288 288 290 293 294 292 290 290 288 286 286 285 282 280 279 279 278 278 277 277 278 280 281 280 279 278 277 276 274 272 271 270 266 263
232 227 222 216 211 209 210 213 219 231 247 261 269 276 283 287 291 293 292 292 294 297 298 295 288 281 277 278 284 288 290 293 295 297 299 300 301 300 300 300 300 301 302 302 297 292 290 288 287 287 287 285 286 289 290 289 288 288 288 288 288 287 285 283 283 282 280 279 277 276 275 276 277 279 279 279 279 279 278 275 269 265 266 269 270
225 219 213 207 204 206 210 217 230 244 254 263 270 275 279 285 291 295 298 301 301 302 303 303 300 297 291 285 287 291 293 295 298 298 299 300 300 300 300 300 300 301 302 300 293 287 286 285 284 284 284 283 285 287 286 285 285 285 284 285 286 286 285 285 285 283 281 279 277 276 275 274 275 276 275 275 276 276 277 278 276 271 267 267 267
212 209 207 204 203 208 215 224 238 248 255 262 269 274 278 283 288 294 300 305 306 306 306 305 305 308 307 303 303 303 300 298 299 299 299 299 299 300 302 301 299 299 296 289 282 281 282 283 282 282 282 282 283 284 284 283 283 283 283 283 284 284 284 285 284 283 282 280 278 277 276 275 275 274 274 274 275 274 272 273 275 274 273 272 269
200 199 201 203 206 212 220 230 240 248 256 264 268 273 279 285 290 293 296 298 298 299 300 301 303 308 311 312 313 313 309 303 299 298 298 297 298 301 302 300 298 296 290 280 275 276 278 279 279 280 281 281 281 282 282 282 282 282 283 284 283 283 283 283 283 282 281 280 278 276 276 275 274 273 274 273 273 272 272 271 269 268 268 271 272
197 198 200 206 212 218 227 237 245 252 260 265 269 275 282 287 290 292 293 292 292 294 297 302 305 309 313 316 318 320 318 311 301 296 295 295 296 298 296 292 290 290 286 281 276 274 275 276 277 278 279 279 280 280 280 281 282 282 283 282 281 281 281 280 280 280 279 278 278 276 275 275 273 272 272 272 270 271 271 270 269 267 265 265 267
200 202 206 213 220 227 237 245 251 256 262 266 271 278 283 286 289 291 290 290 292 294 297 303 307 310 313 318 321 321 320 317 311 305 300 295 293 288 279 275 279 282 281 280 277 275 277 276 275 277 278 277 278 279 280 281 282 282 281 280 278 278 277 275 275 276 277 276 276 275 273 273 272 270 269 269 269 270 270 270 272 271 268 267 266
207 211 217 224 231 238 245 250 253 259 264 268 274 279 283 286 288 289 288 289 292 294 297 301 304 305 308 314 319 320 320 318 317 315 310 301 290 280 270 267 271 274 275 277 276 275 277 277 276 277 278 277 277 279 280 281 281 280 280 278 276 276 276 274 273 273 271 271 273 272 270 271 271 268 267 267 267 266 266 266 267 267 268 269 270
212 218 226 233 238 243 248 250 254 260 265 270 275 280 283 285 286 286 287 289 290 292 296 299 300 301 304 311 317 319 317 314 311 309 308 305 297 283 273 271 273 273 274 276 275 274 276 277 277 278 278 276 276 277 278 279 279 277 277 276 275 275 275 272 271 270 267 266 268 269 268 268 268 267 265 265 265 266 266 264 263 265 269 272 274
216 223 231 237 241 244 247 251 256 261 266 271 277 281 282 284 285 286 288 289 289 292 295 295 296 299 303 308 314 315 309 301 298 299 300 301 297 287 278 276 277 276 275 276 276 277 278 277 276 278 278 277 275 276 277 278 277 276 276 275 272 271 271 269 267 268 269 266 265 265 266 266 265 264 263 263 262 263 263 263 263 266 268 270 271
223 230 234 236 239 243 248 252 258 263 268 272 277 280 282 285 287 288 289 289 290 293 294 293 294 299 303 308 312 309 296 289 290 290 290 292 293 290 284 279 278 278 278 277 277 278 280 278 276 277 278 277 276 277 277 278 278 276 275 274 270 267 268 267 264 264 267 266 264 263 264 264 262 261 262 263 262 262 261 261 261 262 263 264 264
230 232 234 234 237 243 249 254 261 265 269 272 276 278 281 285 287 289 290 290 290 292 293 293 296 300 304 309 312 308 294 287 288 287 286 287 288 288 287 284 282 280 280 280 279 280 281 280 279 280 281 281 280 279 279 280 279 275 274 275 272 266 265 267 266 263 262 261 262 263 263 261 260 260 261 261 262 261 260 260 260 259 260 261 261
231 231 233 236 239 244 250 255 262 267 270 274 278 279 281 285 287 288 289 289 289 291 292 293 297 301 304 308 311 308 298 291 287 284 284 286 286 286 287 287 285 284 283 284 285 284 283 282 282 282 282 283 283 282 280 279 280 279 278 276 273 268 265 264 264 263 261 259 260 263 262 258 258 259 259 259 260 260 258 259 259 257 257 259 259
228 229 232 236 240 248 255 260 266 271 273 276 279 280 283 286 287 287 288 289 290 292 292 293 296 300 303 307 309 307 303 299 293 285 286 292 294 293 292 290 291 294 294 292 290 287 283 284 286 286 285 287 289 288 285 283 284 285 285 282 278 274 270 266 265 267 265 260 257 259 259 257 257 258 256 256 258 259 258 259 259 257 256 257 257
229 229 231 237 242 251 261 266 270 273 275 276 278 281 285 287 287 288 290 291 293 295 295 294 295 298 301 304 307 307 308 308 304 293 288 293 296 295 294 294 296 298 299 297 295 293 289 288 289 288 286 288 290 289 287 288 289 289 288 287 284 278 272 271 274 276 273 265 260 262 262 259 256 257 255 255 256 257 256 257 258 256 256 257 259
230 230 234 242 249 256 264 269 271 273 274 276 278 282 286 288 289 291 293 293 294 295 294 294 296 298 300 304 306 308 310 311 308 299 294 298 299 299 300 301 301 303 304 303 300 297 293 290 290 288 288 291 294 293 292 295 295 292 290 289 287 282 275 272 273 276 275 271 266 263 262 257 254 254 254 253 253 255 255 255 256 255 255 256 258
232 236 240 248 255 261 267 270 272 273 274 276 279 282 286 289 291 293 294 295 295 294 293 294 297 299 301 304 307 309 311 312 309 303 300 304 307 307 306 306 306 307 308 307 304 301 298 296 295 292 291 293 297 298 297 297 297 298 296 292 288 285 282 278 273 273 277 279 273 265 260 257 254 253 253 252 251 253 254 253 253 254 255 255 256
234 238 244 251 258 264 269 272 273 273 275 278 281 284 287 289 291 293 295 296 295 296 295 297 300 302 303 306 309 310 312 313 312 307 303 306 309 309 309 309 309 310 308 307 307 307 305 303 301 299 296 294 295 297 298 296 295 297 299 295 290 288 288 287 283 278 279 280 276 266 260 257 253 249 249 249 249 250 251 251 251 251 253 255 256
237 241 249 256 261 267 272 274 274 274 276 279 283 286 289 291 293 295 296 296 295 296 298 300 303 305 306 308 311 312 313 313 312 309 307 309 311 311 312 313 314 313 309 306 308 311 312 311 309 307 303 299 298 299 301 300 299 298 298 296 293 292 291 292 291 288 286 285 280 269 259 255 251 246 243 244 246 247 248 249 249 248 249 252 254
242 248 256 262 267 273 276 274 275 276 278 281 285 289 291 293 295 295 296 296 296 298 301 303 305 308 310 311 312 314 315 314 312 309 310 312 313 314 315 316 316 315 312 310 311 313 314 313 311 307 304 303 302 301 301 302 303 302 299 297 297 298 298 298 297 295 291 289 284 274 261 253 250 246 241 240 242 244 243 242 244 245 246 247 249
250 257 264 269 273 277 278 276 277 280 282 285 289 291 292 294 295 295 296 297 298 301 304 306 307 309 312 313 314 315 316 315 313 310 312 315 316 316 316 316 316 315 315 314 313 313 313 312 309 307 306 304 301 299 299 300 302 302 301 300 302 304 303 300 297 294 290 287 283 276 266 255 249 246 242 236 236 238 238 237 239 241 243 245 247